Temp
-12 -12 -11 -13 -13 -13 -13 -12 -12 -12 -12 -11 -11 -12 -12 -12 -11 -11 -11 -11 -11 -12 -12 -12 -13 -13 -13 -13 -13 -13 -12 -13 -13 -13 -13 -13 -13 -13 -13 -13 -13 -13 -13 -13
-12 -12 -13 -13 -13 -12 -13 -13 -12 -12 -13 -12 -11 -12 -12 -12 -12 -11 -11 -11 -12 -12 -12 -13 -13 -13 -13 -13 -13 -13 -13 -13 -13 -14 -13 -13 -13 -13 -13 -13 -13 -13 -13 -13
-13 -12 -13 -13 -13 -12 -13 -13 -13 -12 -13 -12 -11 -11 -12 -12 -12 -12 -12 -12 -12 -12 -12 -13 -13 -14 -14 -13 -14 -14 -14 -14 -14 -14 -13 -13 -13 -13 -13 -13 -13 -13 -14 -14
-12 -13 -13 -13 -13 -13 -13 -14 -13 -13 -12 -12 -12 -10 -11 -12 -12 -12 -12 -13 -13 -13 -13 -13 -14 -14 -14 -14 -14 -15 -14 -14 -14 -14 -14 -14 -14 -13 -14 -14 -14 -14 -14 -14
-12 -12 -13 -14 -13 -14 -13 -14 -13 -12 -12 -12 -12 -11 -10 -11 -12 -13 -13 -13 -13 -13 -12 -13 -13 -14 -14 -14 -14 -14 -14 -14 -15 -14 -14 -14 -14 -14 -14 -14 -14 -14 -15 -15
-13 -13 -13 -13 -14 -14 -13 -13 -13 -13 -13 -11 -12 -12 -10 -11 -12 -13 -13 -13 -13 -12 -12 -12 -13 -13 -13 -14 -14 -14 -14 -15 -15 -15 -14 -15 -15 -15 -14 -14 -15 -15 -15 -15
-14 -14 -14 -14 -14 -14 -14 -14 -14 -13 -13 -11 -12 -11 -11 -12 -13 -12 -12 -13 -13 -13 -13 -13 -13 -13 -13 -14 -14 -14 -14 -15 -15 -15 -15 -15 -15 -15 -15 -15 -15 -15 -16 -15
-16 -15 -15 -14 -14 -15 -14 -14 -14 -14 -13 -13 -13 -11 -12 -12 -13 -12 -12 -12 -13 -14 -14 -14 -13 -13 -13 -14 -14 -14 -14 -14 -15 -15 -15 -16 -16 -16 -16 -16 -16 -16 -15 -15
-17 -17 -17 -16 -15 -15 -15 -15 -14 -15 -14 -14 -12 -12 -13 -13 -13 -13 -13 -12 -12 -12 -13 -14 -14 -14 -14 -14 -14 -14 -15 -15 -15 -15 -15 -15 -15 -16 -16 -15 -15 -16 -15 -16
-19 -18 -17 -17 -17 -16 -16 -16 -16 -16 -16 -15 -13 -13 -13 -13 -13 -13 -12 -13 -12 -12 -12 -13 -13 -14 -14 -14 -15 -14 -14 -15 -15 -15 -15 -15 -15 -15 -15 -15 -15 -16 -16 -16
-20 -19 -19 -18 -18 -18 -17 -17 -17 -17 -17 -17 -15 -14 -14 -13 -13 -13 -14 -14 -14 -14 -14 -14 -14 -14 -15 -15 -15 -15 -15 -15 -15 -16 -16 -16 -16 -16 -16 -16 -16 -16 -16 -17
-20 -20 -19 -19 -19 -18 -18 -18 -17 -17 -17 -17 -17 -15 -15 -14 -14 -14 -15 -15 -15 -15 -14 -14 -14 -15 -15 -15 -16 -16 -16 -16 -16 -16 -16 -16 -16 -16 -15 -16 -16 -16 -17 -18
-20 -20 -20 -20 -19 -19 -19 -19 -18 -18 -18 -17 -18 -16 -16 -16 -15 -16 -16 -16 -15 -15 -15 -15 -14 -15 -15 -15 -16 -16 -16 -17 -17 -17 -17 -16 -16 -16 -16 -16 -17 -17 -18 -18
-21 -21 -20 -21 -21 -20 -20 -21 -20 -19 -19 -19 -18 -17 -17 -17 -17 -17 -17 -17 -17 -17 -16 -16 -16 -16 -16 -16 -17 -17 -17 -17 -17 -17 -17 -16 -16 -16 -17 -17 -17 -17 -17 -18
-23 -22 -22 -21 -21 -21 -21 -21 -21 -21 -20 -20 -19 -20 -17 -18 -19 -18 -18 -18 -18 -18 -18 -18 -18 -18 -18 -19 -18 -18 -18 -18 -18 -17 -17 -17 -17 -17 -17 -16 -17 -18 -18 -19
-24 -24 -24 -23 -23 -24 -24 -21 -21 -22 -22 -22 -21 -21 -19 -18 -19 -19 -19 -18 -19 -19 -18 -19 -19 -19 -19 -19 -19 -19 -18 -18 -18 -18 -18 -18 -18 -18 -18 -17 -18 -19 -19 -19
-26 -26 -25 -24 -25 -26 -24 -22 -24 -23 -23 -24 -24 -22 -21 -20 -20 -20 -20 -20 -20 -20 -20 -19 -19 -19 -19 -19 -20 -19 -19 -18 -18 -18 -18 -18 -18 -18 -18 -18 -18 -19 -19 -20
-27 -27 -27 -26 -26 -26 -24 -24 -24 -24 -24 -24 -24 -24 -24 -23 -20 -20 -21 -21 -21 -21 -20 -19 -19 -19 -19 -18 -18 -19 -19 -19 -18 -18 -18 -18 -18 -18 -18 -19 -19 -19 -20 -20
-28 -29 -28 -28 -27 -27 -25 -24 -24 -25 -25 -24 -24 -24 -24 -23 -23 -22 -22 -22 -22 -22 -21 -20 -20 -20 -20 -20 -19 -19 -19 -19 -19 -19 -19 -19 -19 -19 -19 -19 -19 -20 -20 -21
-29 -29 -29 -29 -28 -28 -25 -25 -25 -28 -25 -25 -25 -25 -25 -25 -24 -23 -23 -23 -23 -22 -22 -22 -21 -20 -21 -21 -21 -21 -21 -21 -20 -20 -19 -20 -19 -20 -20 -20 -20 -21 -21 -22
-29 -29 -29 -29 -29 -29 -25 -26 -29 -27 -26 -25 -25 -26 -26 -26 -26 -25 -25 -24 -25 -24 -24 -24 -23 -22 -23 -23 -22 -22 -21 -21 -21 -20 -20 -19 -19 -20 -20 -21 -21 -22 -22 -23
-29 -30 -29 -29 -30 -29 -27 -28 -28 -28 -28 -27 -27 -27 -27 -27 -27 -26 -26 -25 -25 -25 -25 -25 -24 -24 -23 -24 -23 -22 -22 -21 -21 -21 -21 -21 -20 -20 -20 -20 -22 -23 -23 -23
-30 -30 -30 -30 -29 -29 -28 -28 -28 -28 -28 -28 -28 -28 -28 -27 -27 -26 -26 -26 -25 -25 -25 -24 -24 -23 -23 -23 -23 -23 -22 -22 -22 -22 -21 -21 -21 -21 -22 -22 -23 -23 -23 -24
-30 -30 -30 -30 -28 -28 -28 -28 -29 -29 -28 -28 -28 -28 -28 -27 -27 -26 -26 -26 -26 -26 -25 -25 -24 -24 -23 -23 -23 -23 -23 -23 -23 -23 -23 -22 -22 -23 -23 -23 -23 -23 -24 -24
-30 -31 -31 -30 -30 -30 -29 -29 -29 -29 -28 -28 -28 -28 -28 -27 -27 -26 -26 -26 -26 -26 -26 -25 -25 -24 -24 -24 -24 -23 -23 -23 -23 -23 -24 -23 -24 -24 -24 -24 -24 -24 -24 -24
-30 -30 -30 -29 -30 -29 -29 -29 -29 -28 -28 -28 -28 -28 -28 -27 -27 -27 -26 -26 -26 -26 -26 -25 -25 -25 -24 -25 -25 -24 -24 -24 -24 -24 -24 -24 -24 -24 -24 -24 -24 -24 -24 -25
Height
5737 5735 5738 5744 5738 5736 5738 5738 5739 5748 5752 5742 5743 5739 5741 5746 5747 5751 5755 5757 5759 5761 5762 5761 5763 5763 5765 5767 5765 5765 5766 5766 5766 5766 5767 5767 5766 5767 5767 5767 5766 5764 5764 5763
5727 5729 5734 5732 5731 5728 5728 5731 5732 5736 5739 5729 5731 5729 5732 5736 5738 5739 5741 5744 5749 5751 5751 5752 5753 5752 5754 5756 5756 5758 5756 5756 5756 5756 5756 5757 5758 5758 5757 5756 5755 5755 5754 5753
5720 5721 5722 5723 5723 5721 5721 5722 5725 5722 5727 5723 5722 5720 5725 5727 5727 5729 5730 5734 5737 5740 5740 5740 5741 5741 5742 5746 5747 5748 5747 5747 5747 5747 5747 5749 5749 5748 5747 5746 5745 5745 5744 5743
5709 5711 5712 5713 5713 5713 5712 5714 5713 5713 5714 5716 5714 5706 5717 5720 5721 5721 5724 5724 5727 5728 5729 5729 5730 5731 5734 5737 5737 5737 5738 5738 5737 5737 5739 5739 5738 5737 5736 5736 5735 5734 5732 5731
5699 5700 5701 5700 5703 5701 5702 5703 5703 5704 5704 5706 5706 5702 5708 5712 5714 5714 5714 5713 5716 5719 5721 5722 5722 5722 5722 5724 5726 5726 5727 5727 5729 5728 5729 5728 5727 5726 5726 5724 5723 5722 5721 5719
5684 5685 5687 5689 5689 5690 5691 5692 5693 5694 5694 5694 5697 5697 5701 5701 5702 5703 5704 5704 5704 5706 5709 5711 5713 5713 5714 5714 5716 5717 5718 5719 5719 5719 5718 5717 5716 5715 5714 5713 5712 5711 5709 5708
5670 5671 5674 5674 5676 5677 5679 5679 5681 5682 5681 5683 5685 5689 5692 5685 5689 5691 5694 5697 5698 5698 5698 5699 5702 5703 5704 5706 5706 5707 5707 5708 5708 5708 5707 5706 5705 5703 5702 5701 5700 5699 5698 5696
5655 5657 5660 5661 5662 5664 5665 5666 5665 5662 5669 5673 5673 5675 5677 5676 5672 5679 5681 5683 5687 5689 5688 5690 5690 5692 5693 5693 5694 5695 5696 5697 5697 5697 5696 5694 5693 5691 5689 5688 5686 5685 5685 5684
5640 5641 5643 5647 5646 5649 5651 5648 5654 5649 5655 5652 5658 5665 5663 5665 5665 5663 5665 5669 5671 5674 5678 5679 5678 5679 5679 5680 5680 5681 5682 5683 5684 5685 5684 5682 5680 5679 5677 5675 5674 5673 5673 5671
5623 5627 5630 5631 5632 5635 5635 5637 5639 5637 5636 5635 5644 5644 5649 5650 5651 5651 5651 5653 5657 5659 5662 5664 5664 5665 5667 5668 5668 5668 5669 5670 5670 5669 5670 5670 5668 5665 5665 5664 5662 5661 5661 5658
5610 5612 5617 5619 5622 5621 5623 5624 5625 5625 5624 5621 5627 5631 5633 5633 5636 5636 5637 5639 5641 5642 5645 5648 5650 5651 5651 5653 5653 5653 5655 5657 5658 5658 5657 5656 5654 5654 5654 5651 5649 5647 5647 5643
5597 5597 5598 5604 5605 5608 5610 5614 5611 5607 5606 5608 5609 5618 5619 5620 5617 5617 5619 5620 5622 5627 5630 5633 5636 5637 5638 5639 5640 5639 5640 5642 5643 5644 5643 5642 5642 5643 5641 5641 5637 5635 5632 5629
5586 5585 5584 5589 5590 5593 5593 5596 5596 5592 5591 5596 5593 5605 5605 5603 5605 5605 5603 5605 5608 5610 5611 5614 5618 5620 5621 5622 5624 5626 5626 5626 5627 5628 5628 5628 5629 5629 5628 5625 5621 5620 5618 5616
5569 5571 5572 5572 5573 5575 5577 5578 5579 5578 5578 5579 5580 5589 5593 5590 5590 5590 5589 5589 5586 5592 5597 5599 5600 5601 5603 5605 5607 5608 5610 5612 5612 5612 5613 5614 5615 5613 5613 5610 5607 5606 5604 5602
5552 5556 5554 5557 5556 5554 5557 5566 5569 5564 5566 5559 5571 5562 5581 5582 5575 5575 5577 5574 5574 5575 5577 5578 5581 5584 5587 5588 5588 5590 5592 5594 5597 5598 5599 5602 5602 5601 5601 5598 5594 5591 5590 5588
5536 5538 5538 5543 5539 5533 5535 5549 5556 5551 5551 5545 5548 5547 5564 5566 5561 5562 5558 5558 5562 5562 5563 5563 5565 5568 5571 5572 5575 5577 5578 5577 5580 5583 5585 5585 5587 5587 5586 5584 5581 5575 5574 5573
5524 5523 5523 5525 5524 5516 5520 5542 5532 5536 5539 5533 5527 5535 5544 5549 5552 5545 5544 5549 5545 5543 5546 5550 5551 5550 5555 5558 5556 5560 5565 5565 5564 5567 5567 5569 5569 5570 5570 5569 5567 5564 5560 5558
5512 5511 5507 5508 5509 5500 5514 5522 5523 5521 5520 5517 5516 5523 5527 5528 5531 5531 5536 5530 5526 5528 5528 5531 5532 5534 5536 5538 5541 5544 5546 5551 5551 5551 5552 5555 5555 5556 5556 5555 5553 5551 5547 5545
5499 5497 5493 5490 5493 5491 5501 5515 5514 5500 5499 5503 5508 5507 5510 5511 5512 5527 5518 5509 5511 5511 5513 5515 5515 5518 5519 5520 5521 5523 5526 5532 5536 5537 5537 5538 5539 5541 5541 5541 5540 5537 5534 5533
5489 5486 5482 5481 5477 5476 5494 5505 5493 5478 5480 5502 5493 5491 5493 5493 5494 5506 5500 5496 5496 5496 5496 5499 5500 5502 5500 5502 5505 5507 5511 5514 5517 5520 5521 5524 5525 5524 5526 5526 5523 5522 5520 5520
5477 5475 5471 5470 5465 5464 5485 5486 5472 5472 5478 5480 5478 5478 5478 5479 5480 5486 5486 5482 5481 5482 5483 5482 5482 5485 5485 5486 5491 5494 5499 5503 5505 5507 5507 5506 5508 5508 5509 5508 5508 5507 5509 5509
5465 5460 5461 5458 5453 5452 5470 5468 5464 5465 5462 5465 5466 5466 5463 5466 5470 5471 5471 5471 5469 5470 5471 5472 5470 5473 5474 5478 5480 5482 5485 5490 5493 5491 5491 5492 5494 5495 5496 5497 5496 5497 5497 5497
5449 5450 5444 5441 5440 5443 5453 5452 5453 5452 5453 5455 5453 5454 5454 5456 5458 5460 5462 5462 5461 5462 5462 5464 5463 5463 5463 5467 5471 5471 5475 5480 5480 5480 5482 5482 5483 5486 5486 5487 5487 5487 5487 5486
5439 5435 5427 5427 5432 5431 5434 5436 5438 5441 5441 5443 5444 5445 5445 5447 5449 5451 5452 5452 5453 5454 5455 5456 5455 5455 5456 5459 5463 5466 5466 5470 5470 5471 5472 5473 5476 5478 5478 5478 5479 5478 5477 5475
5429 5425 5422 5417 5419 5414 5417 5421 5424 5427 5430 5433 5436 5436 5436 5438 5440 5442 5443 5443 5445 5446 5448 5449 5449 5449 5451 5454 5456 5458 5460 5462 5462 5463 5464 5466 5467 5468 5469 5469 5468 5468 5466 5463
5422 5420 5416 5414 5413 5409 5411 5414 5417 5420 5423 5426 5427 5429 5431 5432 5432 5433 5435 5436 5437 5438 5439 5441 5442 5444 5445 5447 5449 5450 5451 5452 5453 5455 5456 5459 5460 5460 5460 5459 5459 5457 5454 5450
Wind_Speed
41 43 38 29 34 38 43 42 42 39 40 51 52 57 53 46 46 44 42 43 45 43 44 48 49 49 44 42 48 48 44 43 43 42 40 39 42 41 39 38 39 41 41 42
43 44 36 37 36 37 41 42 41 39 39 52 50 52 52 48 47 49 51 50 43 37 39 39 43 46 46 46 48 47 46 45 43 42 41 40 40 41 40 40 41 42 43 44
47 45 44 40 39 40 41 43 41 43 37 43 44 44 42 43 43 41 40 36 31 30 31 32 36 40 41 39 40 42 46 45 44 43 43 40 40 41 42 43 43 44 45 45
49 47 42 40 40 40 43 41 45 45 41 37 42 45 33 32 35 35 35 33 28 26 25 25 28 34 31 35 40 43 47 47 45 46 44 43 43 45 45 45 44 44 44 46
54 50 46 46 43 42 47 45 47 46 45 40 42 45 33 31 31 31 33 33 31 30 28 26 29 32 35 35 36 44 46 40 43 45 44 44 44 44 43 42 43 44 47 50
51 56 58 56 53 51 50 46 46 49 49 46 44 43 40 38 37 34 32 32 34 34 33 30 30 33 37 40 42 43 41 39 44 43 41 42 45 46 46 46 47 48 50 53
50 50 50 51 50 52 53 57 56 54 54 51 53 50 47 53 48 45 40 37 37 38 38 38 37 36 36 37 42 45 46 47 47 46 44 46 49 50 51 51 52 53 54 57
50 50 50 53 52 53 54 57 58 61 61 59 60 57 58 59 61 54 49 46 42 40 43 43 44 43 42 41 42 43 45 48 49 49 48 50 53 55 57 57 59 59 59 62
49 50 47 47 51 53 56 60 60 62 59 62 62 59 61 60 58 58 55 52 50 48 46 46 48 49 47 46 46 46 47 48 47 48 52 54 57 60 62 62 64 65 64 66
46 47 49 51 51 53 55 55 56 57 56 60 60 60 57 56 56 55 57 57 55 52 52 52 50 47 46 45 47 51 51 49 50 52 54 57 60 64 65 67 71 70 67 69
52 51 51 50 50 47 53 54 56 56 52 54 59 60 60 61 61 61 60 59 58 56 54 53 53 51 50 47 47 50 52 52 53 55 57 61 66 67 66 69 69 65 63 54
47 58 59 58 56 58 59 51 42 45 49 53 55 59 60 62 65 66 65 65 62 59 58 55 54 53 53 50 50 51 51 49 48 56 60 61 60 60 65 64 68 64 55 53
59 59 55 59 65 66 59 60 62 58 56 53 53 60 61 63 65 68 70 68 67 66 63 61 58 55 51 51 48 45 44 46 49 52 57 58 58 61 65 57 56 52 48 57
65 65 67 65 60 60 57 37 52 64 66 68 69 67 65 67 67 65 67 67 69 65 64 65 64 63 59 56 54 49 47 48 49 54 58 58 56 52 51 58 58 61 59 60
64 66 70 71 70 68 64 61 53 48 46 55 64 59 67 68 71 72 72 70 66 64 63 66 63 61 58 54 56 53 53 50 47 51 52 50 49 57 61 59 65 63 63 58
60 64 66 68 66 62 65 67 63 61 60 60 63 62 57 66 62 64 66 72 68 65 67 64 67 62 59 58 52 57 58 60 57 51 50 47 50 57 64 59 55 53 58 60
50 53 56 63 58 58 66 64 60 62 61 58 62 63 66 68 68 65 68 68 71 71 68 70 71 72 66 61 59 59 54 60 58 55 57 57 54 59 61 59 58 59 53 51
45 46 50 55 54 61 60 58 57 58 58 55 55 54 58 61 67 68 62 65 68 68 71 70 68 69 70 71 67 62 61 59 65 61 57 59 52 50 52 54 54 51 54 51
45 45 48 51 53 56 56 51 52 55 59 58 56 54 55 57 59 61 62 65 65 66 69 72 73 71 66 64 66 69 66 62 54 61 50 42 45 41 45 53 46 48 55 57
41 42 45 49 53 54 52 45 52 52 61 49 51 51 45 53 53 53 56 58 59 61 65 68 70 70 68 66 66 58 46 40 42 36 32 43 48 46 46 51 48 49 54 50
39 41 45 46 49 53 45 42 43 50 49 48 48 45 36 39 40 41 40 44 42 43 47 51 55 59 54 52 53 40 38 34 37 35 44 44 45 43 42 37 45 47 44 36
43 46 46 48 51 53 39 39 42 39 39 36 33 33 37 40 34 32 30 32 34 33 37 40 36 33 39 38 32 31 35 38 40 41 29 34 40 37 42 47 32 31 33 34
49 48 51 54 55 53 42 40 37 36 33 27 27 27 28 30 31 30 33 25 29 30 27 34 24 26 28 27 33 36 31 29 33 35 33 32 33 40 39 38 31 35 39 39
40 41 48 50 49 46 41 38 33 28 29 25 21 25 31 28 23 24 26 22 20 15 16 22 25 23 19 29 32 31 32 34 33 31 25 26 28 29 31 32 37 41 40 44
20 21 22 27 14 24 27 28 28 29 31 27 25 23 20 21 19 21 18 22 20 18 17 18 19 18 19 25 33 37 33 28 24 25 26 29 31 31 32 32 33 40 46 48
16 14 19 14 16 19 16 20 23 23 26 29 27 25 24 23 21 22 22 22 21 24 22 22 22 22 23 20 24 26 23 24 29 31 31 34 35 33 37 41 46 46 46 47
Wind_Direction
267 264 267 279 262 260 257 259 261 260 263 262 264 262 260 263 263 263 264 264 264 265 267 267 267 266 265 263 265 270 269 270 267 267 267 266 265 266 270 271 271 271 273 275
269 272 274 271 267 261 259 260 262 264 267 265 261 256 257 262 264 266 265 264 263 267 268 264 262 264 265 262 263 268 269 266 265 267 268 269 269 270 269 269 271 274 275 275
265 268 269 269 270 264 264 264 266 265 259 261 264 261 260 262 266 268 269 270 267 268 268 263 256 257 259 258 259 259 261 263 265 267 270 272 271 270 269 270 274 276 275 276
264 264 270 267 264 264 264 267 265 262 258 256 262 266 258 261 265 268 271 270 266 264 260 259 254 257 261 261 258 261 260 258 262 268 273 272 273 274 274 275 275 274 274 277
262 262 260 262 265 260 258 262 263 262 262 259 255 262 266 259 260 262 264 262 260 261 259 256 250 250 248 249 250 258 263 265 269 271 273 269 270 272 274 273 272 274 276 277
256 257 259 261 261 262 261 259 259 260 260 257 258 263 264 270 266 265 255 257 260 261 261 257 252 252 252 250 250 254 258 260 263 266 267 267 269 271 272 273 274 274 275 276
255 255 255 257 255 255 254 258 256 256 257 259 262 264 265 273 274 270 263 256 260 264 265 264 261 256 252 253 251 250 252 256 259 259 260 263 267 270 271 272 273 275 277 278
260 255 255 254 255 254 252 253 250 253 256 259 262 261 267 268 275 271 271 268 263 257 257 260 263 265 262 257 255 254 255 256 255 258 257 258 263 267 269 272 273 274 278 282
261 261 255 253 255 254 253 253 254 256 256 257 259 259 262 265 265 269 267 265 265 263 260 257 258 261 264 265 258 255 255 256 256 258 260 261 262 265 268 273 275 277 278 280
255 256 257 256 255 254 255 257 258 261 262 260 257 261 260 261 262 264 264 267 263 262 262 263 263 263 262 261 262 262 261 258 252 255 254 257 262 264 270 273 273 276 279 278
257 258 256 256 251 252 256 256 257 258 260 260 259 257 259 261 259 261 262 262 263 265 264 265 263 263 263 261 258 257 259 261 259 255 254 256 258 264 268 270 274 272 273 276
255 253 252 248 250 246 245 241 233 241 238 244 257 256 257 259 263 264 263 264 266 266 265 262 259 261 263 263 263 261 261 260 259 256 259 261 262 265 266 270 268 271 280 288
249 254 252 249 245 242 244 245 245 242 242 239 244 256 255 255 255 260 264 265 265 266 267 266 265 263 260 262 261 261 261 260 258 258 258 261 263 265 264 260 276 271 282 288
248 250 254 258 253 247 241 241 247 248 249 251 252 252 250 253 256 256 258 262 266 263 262 264 265 265 265 269 270 272 266 261 256 256 257 257 259 262 271 271 279 277 282 282
253 251 253 255 260 258 251 245 242 246 249 249 249 247 245 251 254 256 258 260 262 266 267 269 268 268 271 276 279 280 279 273 265 260 260 261 266 268 265 271 272 269 275 279
257 258 260 259 267 271 271 261 254 258 259 265 256 248 244 244 249 253 257 259 262 263 264 267 269 269 271 272 269 276 279 278 277 272 272 261 271 267 264 258 260 268 272 273
260 261 263 260 265 269 265 269 270 272 272 276 276 272 261 251 252 263 262 264 266 269 272 269 267 269 269 269 276 274 263 267 273 262 261 257 267 256 256 261 266 267 266 276
267 267 266 263 263 265 266 264 270 272 271 270 274 276 277 277 268 268 278 277 277 279 277 276 276 275 276 275 272 268 271 264 254 245 249 254 263 267 272 265 253 261 273 277
269 271 274 273 269 271 266 268 274 276 272 275 282 283 281 277 275 273 277 277 278 277 276 276 276 276 276 274 274 273 272 266 263 265 262 272 269 265 259 255 258 269 267 267
270 272 273 273 276 277 270 271 273 278 273 281 277 278 278 275 276 279 274 274 273 272 272 272 272 272 270 269 270 274 277 279 273 276 267 256 255 249 251 255 255 259 266 273
271 271 271 271 273 274 274 271 274 278 283 276 275 277 269 272 280 275 260 257 263 267 259 265 267 262 267 269 270 271 264 253 257 247 252 251 246 245 241 252 262 265 272 271
274 274 274 274 273 273 273 270 273 277 279 281 278 270 270 272 266 270 259 253 264 271 262 260 276 259 259 258 256 247 246 249 247 250 243 243 246 249 254 259 266 267 267 278
275 276 274 272 274 273 272 272 269 269 273 264 264 264 267 258 254 258 264 259 260 258 258 256 260 233 227 249 250 243 250 256 253 241 249 251 252 256 251 265 279 273 273 280
276 273 273 275 273 278 270 259 259 255 253 255 260 271 267 259 255 258 252 253 262 261 261 251 257 246 249 247 252 253 251 247 254 261 264 273 273 285 285 283 281 268 273 278
284 282 291 286 303 259 251 242 239 241 242 245 262 268 259 244 236 247 256 254 251 258 263 264 267 258 253 252 251 252 247 246 255 263 274 276 276 275 274 275 272 280 285 289
315 295 281 304 283 266 230 227 239 247 250 252 254 251 255 252 256 251 251 258 254 244 241 259 257 247 251 260 259 248 254 261 264 267 268 271 273 275 276 274 276 278 282 286